CW5619 Weather Reports


time (UTC)temp
F
wind
direction
speed
knots
gust
knots
rain 1hr
in
rain 24hr
in
rain mn
in
humidity
%
barometer
mb
20220811225406 96 28 1.7 5.2 0.00 0.14 0.00 37 1014.3
20220811224405 96 11 0.9 6.1 0.00 0.14 0.00 37 1014.5
20220811223406 96 32 2.6 7.0 0.00 0.14 0.00 36 1014.7
20220811222405 97 43 0.9 4.3 0.00 0.14 0.00 35 1014.6
20220811221406 98 19 2.6 5.2 0.00 0.14 0.00 33 1014.8
20220811220406 98 11 1.7 6.1 0.00 0.14 0.00 32 1014.9
20220811215906 98 58 0.9 2.6 0.00 0.14 0.00 33 1015.1
20220811213906 97 61 0.0 2.6 0.00 0.14 0.00 34 1015.5
20220811212406 96 75 0.0 4.3 0.00 0.14 0.00 35 1015.8
20220811210406 96 40 0.9 2.6 0.00 0.14 0.00 36 1016.1
20220811204906 96 13 0.0 2.6 0.00 0.14 0.00 36 1016.5
20220811203406 95 6 0.0 4.3 0.00 0.14 0.00 37 1016.6
20220811201906 93 35 0.0 2.6 0.00 0.14 0.00 40 1016.9
20220811201406 93 40 0.0 2.6 0.00 0.14 0.00 40 1016.9
20220811200406 92 25 0.9 4.3 0.00 0.14 0.00 39 1017.2
20220811195405 91 24 1.7 2.6 0.00 0.14 0.00 41 1017.3
20220811194407 91 13 0.9 4.3 0.00 0.14 0.00 42 1017.3
20220811193406 90 156 0.0 2.6 0.00 0.14 0.00 45 1017.5
20220811192405 89 140 0.0 2.6 0.00 0.14 0.00 45 1017.6
20220811191906 89 144 0.0 2.6 0.00 0.14 0.00 45 1017.6
20220811185906 88 176 0.9 2.6 0.00 0.14 0.00 47 1018.0
20220811185405 87 159 0.0 1.7 0.00 0.14 0.00 48 1018.1
20220811184906 87 121 0.0 1.7 0.00 0.14 0.00 48 1018.2
20220811184406 87 126 0.0 1.7 0.00 0.14 0.00 48 1018.2
20220811183406 87 162 0.0 0.9 0.00 0.14 0.00 48 1018.2
20220811181906 86 127 0.0 2.6 0.00 0.14 0.00 50 1018.2
20220811181407 85 101 0.0 1.7 0.00 0.14 0.00 51 1018.3
20220811180906 85 103 0.0 1.7 0.00 0.14 0.00 52 1018.3
20220811175906 84 209 0.0 0.9 0.00 0.14 0.00 53 1018.6
20220811174906 84 209 0.0 1.7 0.00 0.14 0.00 52 1018.6
20220811173406 84 211 0.0 2.6 0.00 0.14 0.00 52 1018.8
20220811172906 84 211 0.9 2.6 0.00 0.14 0.00 52 1018.8
20220811171405 84 217 0.9 2.6 0.00 0.14 0.00 53 1018.9
20220811165406 84 179 0.9 2.6 0.00 0.14 0.00 53 1018.7
20220811162405 83 329 0.0 0.0 0.00 0.14 0.00 59 1018.5
20220811161404 81 329 0.0 0.0 0.00 0.14 0.00 62 1018.4
20220811160904 81 329 0.0 0.0 0.00 0.14 0.00 62 1018.5
20220811160405 80 329 0.0 2.6 0.00 0.14 0.00 63 1018.4
20220811155405 80 323 0.0 0.0 0.00 0.14 0.00 64 1018.4
20220811154904 79 323 0.0 0.0 0.00 0.14 0.00 64 1018.4
20220811153904 79 323 0.0 0.0 0.00 0.14 0.00 66 1018.3
20220811152905 79 323 0.0 0.9 0.00 0.14 0.00 66 1018.2
20220811152405 79 323 0.0 0.9 0.00 0.14 0.00 67 1018.2
20220811151404 78 323 0.0 1.7 0.00 0.14 0.00 67 1018.0
20220811150905 78 36 0.0 0.0 0.00 0.14 0.00 68 1017.9
20220811145906 78 36 0.0 1.7 0.00 0.14 0.00 66 1017.7
20220811145405 78 36 0.0 0.9 0.00 0.14 0.00 67 1017.6
20220811144405 78 36 0.0 1.7 0.00 0.14 0.00 67 1017.5
20220811143405 78 40 0.0 1.7 0.00 0.14 0.00 66 1017.6
20220811142404 78 51 0.0 0.9 0.00 0.14 0.00 65 1017.6
20220811141905 78 53 0.0 1.7 0.00 0.14 0.00 65 1017.5
20220811134905 77 89 0.0 1.7 0.00 0.14 0.00 67 1017.6
20220811134404 77 92 0.0 2.6 0.00 0.14 0.00 67 1017.5
20220811133905 77 92 0.0 2.6 0.00 0.14 0.00 67 1017.5
20220811133404 77 88 0.9 4.3 0.00 0.14 0.00 66 1017.6
20220811132405 77 102 0.0 2.6 0.00 0.14 0.00 66 1017.4
20220811131904 77 94 0.0 4.3 0.00 0.14 0.00 65 1017.4
20220811125905 78 96 0.0 6.1 0.00 0.14 0.00 63 1017.1
20220811125406 78 115 0.9 6.1 0.00 0.14 0.00 63 1017.1
20220811124404 77 141 1.7 4.3 0.00 0.14 0.00 64 1017.3
20220811123404 77 117 0.9 6.1 0.00 0.14 0.00 66 1017.4
20220811120405 76 138 0.9 4.3 0.00 0.14 0.00 72 1017.8
20220811115904 76 82 0.0 4.3 0.00 0.14 0.00 72 1017.7
20220811114905 77 101 0.0 2.6 0.00 0.14 0.00 72 1017.7
20220811113405 77 84 0.0 1.7 0.00 0.14 0.00 72 1017.7
20220811112904 77 92 0.0 1.7 0.00 0.14 0.00 73 1017.7
20220811112404 77 115 0.0 2.6 0.00 0.14 0.00 73 1017.8
20220811111905 77 125 0.0 2.6 0.00 0.14 0.00 73 1017.8
20220811110905 77 196 0.9 2.6 0.00 0.14 0.00 72 1017.8
20220811105905 77 165 0.9 4.3 0.00 0.14 0.00 71 1017.8
20220811105405 77 180 1.7 4.3 0.00 0.14 0.00 71 1017.7
20220811103405 77 143 1.7 4.3 0.00 0.14 0.00 71 1018.0
20220811102905 77 102 1.7 7.0 0.00 0.14 0.00 72 1018.1
20220811102405 77 149 2.6 7.8 0.00 0.14 0.00 73 1018.2
20220811101405 77 97 2.6 7.8 0.00 0.14 0.00 74 1018.4
20220811095905 77 115 3.5 8.7 0.00 0.14 0.00 75 1018.7
20220811095405 77 114 1.7 8.7 0.00 0.14 0.00 75 1018.8
20220811094905 77 145 2.6 8.7 0.00 0.14 0.00 76 1018.8
20220811094404 76 125 2.6 6.1 0.00 0.14 0.00 76 1018.8
20220811093405 76 107 1.7 4.3 0.00 0.14 0.00 77 1018.6
20220811091904 75 95 0.9 2.6 0.00 0.14 0.00 77 1018.5
20220811091405 75 80 1.7 2.6 0.00 0.14 0.00 77 1018.5
20220811090404 75 127 0.0 2.6 0.00 0.14 0.00 77 1018.6
20220811085904 75 36 0.0 1.7 0.00 0.14 0.00 76 1018.6
20220811084905 75 56 0.9 4.3 0.00 0.14 0.00 75 1018.6
20220811084405 75 72 0.9 4.3 0.00 0.14 0.00 74 1018.6
20220811082904 74 77 1.7 5.2 0.00 0.14 0.00 76 1018.5
20220811080904 75 58 1.7 6.1 0.00 0.16 0.00 76 1018.3
20220811075905 75 30 2.6 6.1 0.00 0.18 0.00 75 1018.5
20220811075405 75 65 0.9 6.1 0.00 0.19 0.00 75 1018.6
20220811072405 74 24 3.5 10.4 0.00 0.27 0.00 79 1018.6
20220811071904 74 28 4.3 12.2 0.00 0.27 0.00 80 1018.5
20220811071405 74 30 4.3 12.2 0.00 0.27 0.00 80 1018.7
20220811070905 74 9 4.3 8.7 0.00 0.27 0.00 82 1018.9
20220811070405 74 16 4.3 8.7 0.00 0.27 0.00 83 1018.9
20220811065905 74 1 2.6 7.0 0.00 0.27 0.27 84 1019.0
20220811064405 73 24 4.3 8.7 0.01 0.27 0.27 83 1018.9
20220811063905 74 11 3.5 7.8 0.04 0.27 0.27 83 1018.8
20220811063404 74 28 3.5 7.8 0.12 0.27 0.27 84 1018.9
20220811062905 74 31 2.6 7.8 0.14 0.27 0.27 84 1018.9
20220811062404 75 6 0.0 5.2 0.14 0.27 0.27 83 1018.8
20220811061905 75 352 1.7 4.3 0.14 0.27 0.27 83 1018.8
20220811061405 75 11 0.9 4.3 0.14 0.27 0.27 82 1019.0
20220811055404 76 244 0.0 1.7 0.14 0.27 0.27 80 1019.7
20220811054905 77 244 0.0 2.6 0.14 0.27 0.27 79 1020.0
20220811054404 77 230 0.9 4.3 0.13 0.26 0.26 78 1020.2
20220811052905 79 180 2.6 6.1 0.00 0.13 0.13 71 1020.4
20220811052405 79 157 1.7 6.1 0.00 0.13 0.13 68 1020.3
20220811051405 78 344 0.0 1.7 0.00 0.13 0.13 69 1020.0
20220811050405 78 19 0.9 4.3 0.00 0.13 0.13 70 1019.3
20220811045905 78 19 0.0 4.3 0.00 0.13 0.13 71 1019.1
20220811045405 78 20 0.9 4.3 0.00 0.13 0.13 71 1018.7
20220811041905 79 62 2.6 5.2 0.00 0.13 0.13 62 1017.8
20220811041405 79 53 1.7 5.2 0.00 0.13 0.13 60 1017.7
20220811040905 79 83 0.9 7.0 0.00 0.13 0.13 60 1017.7
20220811040405 79 51 3.5 7.0 0.00 0.13 0.13 58 1017.5
20220811035905 79 50 2.6 7.0 0.00 0.13 0.13 58 1017.5
20220811034905 80 138 1.7 7.0 0.00 0.13 0.13 57 1017.6
20220811034405 80 88 1.7 6.1 0.00 0.13 0.13 56 1017.5
20220811033905 80 88 2.6 5.2 0.00 0.13 0.13 56 1017.4
20220811030405 82 23 6.1 19.1 0.00 0.13 0.13 50 1016.6
20220811024405 88 67 0.9 5.2 0.00 0.13 0.13 46 1017.0
20220811021905 89 185 0.0 0.0 0.00 0.13 0.13 44 1016.4
20220811014404 90 228 0.0 2.6 0.00 0.13 0.13 41 1015.6
20220811013905 91 254 0.9 1.7 0.00 0.13 0.13 42 1015.8
20220811005905 89 17 0.9 2.6 0.00 0.13 0.13 45 1014.5
20220811005405 90 17 0.9 2.6 0.00 0.13 0.13 45 1014.5
20220811004905 90 13 0.9 5.2 0.00 0.13 0.13 47 1014.5
20220811003405 92 46 1.7 10.4 0.00 0.13 0.13 44 1014.6
20220811001405 100 283 0.0 4.3 0.00 0.13 0.13 30 1014.3
20220811000405 101 250 0.9 5.2 0.00 0.13 0.13 31 1014.3
20220810234905 101 282 0.9 6.1 0.00 0.13 0.13 31 1013.9
20220810233905 102 285 0.0 4.3 0.00 0.13 0.13 30 1014.2
20220810233405 102 287 0.9 4.3 0.00 0.13 0.13 30 1014.2
20220810232905 102 292 0.9 4.3 0.00 0.13 0.13 30 1014.3
20220810231406 102 233 0.9 6.1 0.00 0.13 0.13 30 1014.3